Upington, South Africa

8:23 PM SAST on May 26, 2017 (GMT +0200)
Upington

Weather History for FAUP - December, 2012

Change the Weather History Date:

Thursday, December 6, 2012

  Actual Average Record
Temperature  
Mean Temperature 82 °F -  
Max Temperature 99 °F 92 °F 107 °F (2015)
Min Temperature 66 °F 64 °F 57 °F (2001)
Cooling Degree Days 18    
Growing Degree Days 32 (Base 50)    
Moisture  
Dew Point 47 °F    
Average Humidity 33    
Maximum Humidity 60    
Minimum Humidity 8    
Precipitation  
Precipitation 0.02 in 0.02 in - ()
Sea Level Pressure  
Sea Level Pressure 29.89 in    
Wind  
Wind Speed 8 mph ()    
Max Wind Speed 23 mph    
Max Gust Speed 32 mph    
Visibility 6.6 miles    
Events Thunderstorm    
Averages and records for this station are not official NWS values.
T = Trace of Precipitation, MM = Missing Value Source: Averaged Metar Reports

Daily Weather History Graph

Daily Weather History Graph

Search for Another Location

Airport or City:

Trip Planner

Search our weather history database for the weather conditions in past years. The results will help you decide how hot, cold, wet, or windy it might be!

Date:

Astronomy

Dec. 06, 2012 Rise Set
Actual Time 5:29 AM SAST 7:22 PM SAST
Civil Twilight 5:03 AM SAST 7:49 PM SAST
Nautical Twilight 4:31 AM SAST 8:21 PM SAST
Astronomical Twilight 3:57 AM SAST 8:55 PM SAST
Moon 12:06 AM SAST (12/6) 12:12 PM SAST (12/6)
Length of Visible Light 14h 45m
Length of Day
13h 52m
Waning Gibbous, 52% of the Moon is Illuminated
Dec 6
Waning Gibbous
Dec 6
Last Quarter
Dec 13
New
Dec 20
First Quarter
Dec 28
Full

Hourly Weather History & Observations

Time (SAST) Temp. Dew Point Humidity Pressure Visibility Wind Dir Wind Speed Gust Speed Precip Events Conditions
12:00 AM 71.6 °F 42.8 °F 35% 29.86 in - SW 6.9 mph - N/A   Unknown
1:00 AM 71.6 °F 44.6 °F 38% 29.89 in - SW 4.6 mph - N/A   Clear
2:00 AM 69 °F 46 °F 33%  in 25 mi South 5.8 mph - -  
2:00 AM 68.0 °F 44.6 °F 43% 29.86 in - South 4.6 mph - N/A   Clear
3:00 AM 66.2 °F 48.2 °F 52% 29.89 in - NE 5.8 mph - N/A   Clear
4:00 AM 66.2 °F 48.2 °F 52% 29.89 in - West 4.6 mph - N/A   Clear
5:00 AM 69 °F 50 °F 41%  in 25 mi ESE 5.8 mph - -   Scattered Clouds
5:00 AM 68.0 °F 50.0 °F 52% 29.89 in 6.2 mi ESE 4.6 mph - N/A   Partly Cloudy
6:00 AM 68.0 °F 48.2 °F 49% 29.92 in 6.2 mi SSW 3.5 mph - N/A   Partly Cloudy
7:00 AM 73.4 °F 48.2 °F 41% 29.89 in 6.2 mi NE 2.3 mph - N/A   Partly Cloudy
7:40 AM 77.0 °F 50.0 °F 39% 29.92 in 6.2 mi North 17.3 mph - N/A   Partly Cloudy
8:00 AM 79 °F 50 °F 26%  in 25 mi NNE 15.0 mph - -   Scattered Clouds
8:00 AM 78.8 °F 50.0 °F 36% 29.89 in 6.2 mi NNE 15.0 mph - N/A   Partly Cloudy
8:17 AM 82.4 °F 46.4 °F 28% 29.92 in 6.2 mi North 10.4 mph - N/A   Partly Cloudy
9:00 AM 82.4 °F 48.2 °F 30% 29.92 in 6.2 mi North 12.7 mph - N/A   Partly Cloudy
10:00 AM 84.2 °F 44.6 °F 25% 29.92 in 6.2 mi NW 9.2 mph - N/A   Partly Cloudy
10:49 AM 89.6 °F 44.6 °F 21% 29.92 in 6.2 mi NW 16.1 mph - N/A   Partly Cloudy
11:00 AM 91 °F 45 °F 12%  in 25 mi NW 16.1 mph - -   Scattered Clouds
11:00 AM 89.6 °F 44.6 °F 21% 29.92 in 6.2 mi NW 15.0 mph - N/A   Partly Cloudy
11:49 AM 95.0 °F 42.8 °F 16% 29.89 in 6.2 mi WNW 13.8 mph - N/A   Partly Cloudy
12:00 PM 93.2 °F 41.0 °F 16% 29.89 in 6.2 mi NW 13.8 mph - N/A   Partly Cloudy
1:00 PM 96.8 °F 39.2 °F 14% 29.89 in 6.2 mi NW 16.1 mph - N/A   Partly Cloudy
2:00 PM 80 °F 59 °F 38%  in 9 mi West 19.6 mph - - Thunderstorm Thunderstorm
2:00 PM 78.8 °F 59.0 °F 51% 29.86 in 6.2 mi West 19.6 mph 32.2 mph N/A Thunderstorm Thunderstorm
3:00 PM 93.2 °F 44.6 °F 19% 29.83 in 6.2 mi North 15.0 mph - N/A   Partly Cloudy
4:00 PM 84.2 °F 48.2 °F 29% 29.83 in 6.2 mi North 23.0 mph - N/A   Partly Cloudy
4:51 PM 95.0 °F 41.0 °F 15% 29.80 in 6.2 mi WNW 8.1 mph - N/A   Partly Cloudy
5:00 PM 95 °F 41 °F 8%  in 12 mi WNW 9.2 mph - -   Scattered Clouds
5:00 PM 93.2 °F 39.2 °F 15% 29.80 in 6.2 mi WNW 8.1 mph - N/A   Partly Cloudy
6:00 PM 86.0 °F 42.8 °F 22% 29.83 in 6.2 mi North 18.4 mph - N/A   Partly Cloudy
7:00 PM 82.4 °F 48.2 °F 30% 29.86 in 6.2 mi NNE 8.1 mph - N/A   Partly Cloudy
8:00 PM 77 °F 51 °F 30%  in 25 mi NE 5.8 mph - -   Scattered Clouds
8:00 PM 77.0 °F 50.0 °F 39% 29.89 in 6.2 mi NE 4.6 mph - N/A   Partly Cloudy
9:00 PM 71.6 °F 51.8 °F 50% 29.95 in - NE 6.9 mph - N/A   Unknown
11:00 PM 68 °F 55 °F 53%  in - North 5.8 mph - -  
11:00 PM 68.0 °F 53.6 °F 60% 30.01 in - North 4.6 mph - N/A   Unknown